• în România
  • Lista ţărilor
  • Pe 7 zile
  • Temperatura apei
  • Hartă satelitară
  • Meteo pe hartă
  • Widget-uri
  • user-avatar
    Intrare

    Meteo pe oră la Fier

    Astăzi, 18 Ianuarie, Miercuri

    Timp Temperatura Precipitaţii Vânt Presiune Umiditate
    00:00 +3°C° 0 mm 5 m/s 758 mmHg 83%
    01:00 +4°C° 0 mm 4 m/s 757 mmHg 85%
    02:00 +4°C° 0,1 mm 4 m/s 757 mmHg 84%
    03:00 +5°C° 0,1 mm 5 m/s 757 mmHg 84%
    04:00 +5°C° 0,1 mm 5 m/s 757 mmHg 83%
    05:00 +4°C° 0,6 mm 6 m/s 757 mmHg 83%
    06:00 +4°C° 0,6 mm 6 m/s 758 mmHg 82%
    07:00 +5°C° 0 mm 6 m/s 758 mmHg 83%
    08:00 +7°C° 0,6 mm 6 m/s 758 mmHg 81%
    09:00 +7°C° 0,6 mm 6 m/s 759 mmHg 79%
    10:00 +8°C° 0,6 mm 6 m/s 759 mmHg 76%
    11:00 +9°C° 0,2 mm 6 m/s 759 mmHg 75%
    12:00 +9°C° 0,2 mm 6 m/s 759 mmHg 73%
    13:00 +9°C° 0 mm 5 m/s 759 mmHg 75%
    14:00 +8°C° 0,6 mm 6 m/s 759 mmHg 77%
    15:00 +8°C° 0,6 mm 7 m/s 758 mmHg 79%
    16:00 +6°C° 0,6 mm 7 m/s 758 mmHg 80%
    17:00 +6°C° 0,8 mm 7 m/s 758 mmHg 80%
    18:00 +6°C° 0,8 mm 7 m/s 758 mmHg 80%
    19:00 +6°C° 0,8 mm 8 m/s 759 mmHg 80%
    20:00 +5°C° 1,3 mm 7 m/s 759 mmHg 82%
    21:00 +5°C° 1,3 mm 6 m/s 760 mmHg 85%
    22:00 +6°C° 1,3 mm 5 m/s 760 mmHg 87%
    23:00 +6°C° 0,5 mm 5 m/s 761 mmHg 87%

    Mâine, 19 Ianuarie, Joi

    Timp Temperatura Precipitaţii Vânt Presiune Umiditate
    00:00 +5°C° 0,5 mm 5 m/s 761 mmHg 87%
    01:00 +5°C° 0,5 mm 5 m/s 762 mmHg 86%
    02:00 +5°C° 0 mm 5 m/s 762 mmHg 86%
    03:00 +5°C° 0 mm 5 m/s 762 mmHg 85%
    04:00 +5°C° 0 mm 5 m/s 763 mmHg 84%
    05:00 +5°C° 0 mm 5 m/s 763 mmHg 84%
    06:00 +3°C° 0 mm 5 m/s 763 mmHg 83%
    07:00 +3°C° 0 mm 5 m/s 764 mmHg 83%
    08:00 +5°C° 0 mm 5 m/s 764 mmHg 80%
    09:00 +6°C° 0 mm 5 m/s 765 mmHg 78%
    10:00 +7°C° 0 mm 5 m/s 765 mmHg 75%
    11:00 +8°C° 0 mm 5 m/s 765 mmHg 73%
    12:00 +9°C° 0 mm 5 m/s 765 mmHg 71%
    13:00 +10°C° 0 mm 4 m/s 766 mmHg 69%
    14:00 +10°C° 0 mm 4 m/s 766 mmHg 72%
    15:00 +8°C° 0 mm 4 m/s 766 mmHg 74%
    16:00 +7°C° 0 mm 4 m/s 766 mmHg 77%
    17:00 +6°C° 0 mm 4 m/s 767 mmHg 79%
    18:00 +5°C° 0 mm 4 m/s 767 mmHg 81%
    19:00 +4°C° 0 mm 4 m/s 768 mmHg 83%
    20:00 +4°C° 0 mm 4 m/s 768 mmHg 82%
    21:00 +3°C° 0 mm 4 m/s 768 mmHg 82%
    22:00 +3°C° 0 mm 4 m/s 769 mmHg 81%
    23:00 +3°C° 0 mm 4 m/s 769 mmHg 81%

    Poimâine, 20 Ianuarie, Vineri

    Timp Temperatura Precipitaţii Vânt Presiune Umiditate
    00:00 +3°C° 0 mm 4 m/s 769 mmHg 81%
    01:00 +3°C° 0 mm 4 m/s 770 mmHg 81%
    02:00 +3°C° 0 mm 4 m/s 770 mmHg 80%
    03:00 +1°C° 0 mm 4 m/s 770 mmHg 80%
    04:00 +1°C° 0 mm 4 m/s 770 mmHg 80%
    05:00 +1°C° 0 mm 4 m/s 770 mmHg 80%
    06:00 +1°C° 0 mm 4 m/s 770 mmHg 79%
    07:00 +1°C° 0 mm 4 m/s 770 mmHg 79%
    08:00 +4°C° 0 mm 4 m/s 771 mmHg 75%
    09:00 +5°C° 0 mm 4 m/s 771 mmHg 71%
    10:00 +8°C° 0 mm 3 m/s 771 mmHg 67%
    11:00 +9°C° 0 mm 3 m/s 771 mmHg 65%
    12:00 +10°C° 0 mm 3 m/s 770 mmHg 63%
    13:00 +10°C° 0 mm 2 m/s 770 mmHg 60%
    14:00 +10°C° 0 mm 2 m/s 770 mmHg 65%
    15:00 +9°C° 0 mm 2 m/s 770 mmHg 69%
    16:00 +8°C° 0 mm 2 m/s 770 mmHg 73%
    17:00 +7°C° 0 mm 2 m/s 770 mmHg 76%
    18:00 +5°C° 0 mm 3 m/s 771 mmHg 78%
    19:00 +4°C° 0 mm 3 m/s 771 mmHg 80%
    20:00 +4°C° 0 mm 3 m/s 771 mmHg 80%
    21:00 +3°C° 0 mm 3 m/s 771 mmHg 80%
    22:00 +3°C° 0 mm 3 m/s 771 mmHg 79%
    23:00 +3°C° 0 mm 3 m/s 771 mmHg 79%

    21 Ianuarie, Sâmbătă

    Timp Temperatura Precipitaţii Vânt Presiune Umiditate
    00:00 +3°C° 0 mm 3 m/s 771 mmHg 78%
    01:00 +2°C° 0 mm 3 m/s 771 mmHg 77%
    02:00 +2°C° 0 mm 3 m/s 771 mmHg 77%
    03:00 +2°C° 0 mm 3 m/s 771 mmHg 76%
    04:00 +2°C° 0 mm 3 m/s 771 mmHg 76%
    05:00 +2°C° 0 mm 3 m/s 770 mmHg 75%
    06:00 +2°C° 0 mm 3 m/s 770 mmHg 75%
    07:00 +2°C° 0 mm 3 m/s 770 mmHg 74%
    08:00 +5°C° 0 mm 2 m/s 770 mmHg 70%
    09:00 +7°C° 0 mm 2 m/s 770 mmHg 66%
    10:00 +9°C° 0 mm 2 m/s 770 mmHg 61%
    11:00 +10°C° 0 mm 2 m/s 770 mmHg 60%
    12:00 +12°C° 0 mm 1 m/s 770 mmHg 58%
    13:00 +13°C° 0 mm 1 m/s 769 mmHg 56%
    14:00 +12°C° 0 mm 1 m/s 769 mmHg 61%
    15:00 +11°C° 0 mm 1 m/s 769 mmHg 67%
    16:00 +9°C° 0 mm 2 m/s 769 mmHg 72%
    17:00 +8°C° 0 mm 2 m/s 769 mmHg 75%
    18:00 +6°C° 0 mm 2 m/s 769 mmHg 78%
    19:00 +5°C° 0 mm 2 m/s 769 mmHg 80%
    20:00 +5°C° 0 mm 2 m/s 769 mmHg 80%
    21:00 +4°C° 0 mm 3 m/s 770 mmHg 80%
    22:00 +4°C° 0 mm 3 m/s 770 mmHg 79%
    23:00 +3°C° 0 mm 3 m/s 770 mmHg 79%

    22 Ianuarie, Duminică

    Timp Temperatura Precipitaţii Vânt Presiune Umiditate
    00:00 +3°C° 0 mm 3 m/s 770 mmHg 78%
    01:00 +3°C° 0 mm 3 m/s 770 mmHg 77%
    02:00 +3°C° 0 mm 3 m/s 770 mmHg 76%
    03:00 +3°C° 0 mm 3 m/s 770 mmHg 75%
    04:00 +3°C° 0 mm 3 m/s 770 mmHg 74%
    05:00 +3°C° 0 mm 3 m/s 770 mmHg 73%
    06:00 +3°C° 0 mm 3 m/s 770 mmHg 73%
    07:00 +3°C° 0 mm 3 m/s 770 mmHg 72%
    08:00 +4°C° 0 mm 3 m/s 770 mmHg 68%
    09:00 +7°C° 0 mm 3 m/s 771 mmHg 64%
    10:00 +9°C° 0 mm 3 m/s 771 mmHg 60%
    11:00 +10°C° 0 mm 3 m/s 770 mmHg 59%
    12:00 +11°C° 0 mm 3 m/s 770 mmHg 57%
    13:00 +13°C° 0 mm 2 m/s 770 mmHg 55%
    14:00 +12°C° 0 mm 2 m/s 770 mmHg 60%
    15:00 +10°C° 0 mm 2 m/s 770 mmHg 65%
    16:00 +9°C° 0 mm 2 m/s 770 mmHg 69%
    17:00 +8°C° 0 mm 3 m/s 770 mmHg 72%
    18:00 +7°C° 0 mm 3 m/s 770 mmHg 74%
    19:00 +5°C° 0 mm 4 m/s 770 mmHg 77%
    20:00 +5°C° 0 mm 4 m/s 771 mmHg 76%
    21:00 +4°C° 0 mm 4 m/s 771 mmHg 76%
    22:00 +4°C° 0 mm 4 m/s 771 mmHg 75%
    23:00 +4°C° 0 mm 4 m/s 771 mmHg 75%

    23 Ianuarie, Luni

    Timp Temperatura Precipitaţii Vânt Presiune Umiditate
    00:00 +4°C° 0 mm 4 m/s 771 mmHg 75%
    01:00 +4°C° 0 mm 4 m/s 771 mmHg 74%
    02:00 +3°C° 0 mm 4 m/s 770 mmHg 74%
    03:00 +3°C° 0 mm 4 m/s 770 mmHg 73%
    04:00 +3°C° 0 mm 4 m/s 770 mmHg 72%
    05:00 +4°C° 0 mm 4 m/s 770 mmHg 72%
    06:00 +4°C° 0 mm 4 m/s 770 mmHg 72%
    07:00 +4°C° 0 mm 4 m/s 770 mmHg 71%
    08:00 +5°C° 0 mm 4 m/s 770 mmHg 68%
    09:00 +6°C° 0 mm 5 m/s 770 mmHg 66%
    10:00 +8°C° 0 mm 5 m/s 770 mmHg 63%
    11:00 +8°C° 0 mm 4 m/s 769 mmHg 65%
    12:00 +8°C° 0 mm 4 m/s 768 mmHg 66%
    13:00 +10°C° 0 mm 4 m/s 768 mmHg 68%
    14:00 +8°C° 0,1 mm 4 m/s 768 mmHg 71%
    15:00 +9°C° 0,1 mm 3 m/s 767 mmHg 74%
    16:00 +9°C° 0,1 mm 3 m/s 767 mmHg 77%
    17:00 +8°C° 0 mm 3 m/s 767 mmHg 78%
    18:00 +7°C° 0 mm 3 m/s 767 mmHg 79%
    19:00 +7°C° 0 mm 3 m/s 766 mmHg 81%
    20:00 +7°C° 0,1 mm 3 m/s 766 mmHg 81%
    21:00 +7°C° 0,1 mm 3 m/s 765 mmHg 81%
    22:00 +5°C° 0,1 mm 3 m/s 765 mmHg 81%
    23:00 +5°C° 0,4 mm 4 m/s 764 mmHg 82%
    Arată mai mult